Weather Roundup
Issued by NWS Chicago, IL

Home | Current Version | Previous Version | Text Only | Print | Product List | Glossary On
Versions: 1 2 3 4 5 6 7 8 9 10 11 12 13 14 15 16 17 18 19 20 21 22 23 24 25 26 27 28 29 30 31 32 33 34 35 36 37 38 39 40 41 42 43 44 45 46 47 48 49 50
000
NZUS59 KLOT 140108
HRRLOT

CHICAGO AREA WEATHER ROUNDUP
NATIONAL WEATHER SERVICE CHICAGO/ROMEOVILLE IL
700 PM CST WED DEC 13 2017

NOTE: "FAIR" INDICATES FEW OR NO CLOUDS BELOW 12,000 FEET WITH NO
SIGNIFICANT WEATHER AND/OR OBSTRUCTIONS TO VISIBILITY.

* THESE STATIONS ARE NOT UNDER NWS QUALITY CONTROL. THEY ALSO MAY NOT
  REPORT WEATHER SUCH AS PRECIPITATION OR FOG.

ILZ005-006-012>014-019>023-140200-
NORTHEAST ILLINOIS

CITY           SKY/WX    TMP DP  RH WIND       PRES   REMARKS
OHARE          CLOUDY    29  18  63 NW28G38   29.52R WCI  14
MIDWAY         CLOUDY    30  20  66 NW26G35   29.52R WCI  16
AURORA         CLOUDY    29  20  69 NW22G29   29.56R WCI  15
LANSING*       CLOUDY    31  23  72 NW21G33   29.49R WCI  19
JOLIET*        CLOUDY    32  22  65 NW17G28   29.55R WCI  21
WAUKEGAN       CLOUDY    27  21  78 NW12G24   29.51R HAZE    WCI  17
DUPAGE AIRPORT CLOUDY    28  20  71 NW22G38   29.53R WCI  14
WHEELING       CLOUDY    29  20  69 NW24G35   29.53R WCI  15
KANKAKEE*      CLOUDY    34  24  68 NW24G32   29.53R WCI  21
MORRIS*        CLOUDY    31  22  67 NW21G30   29.56R WCI  19
LEWIS AIRPORT* CLOUDY    30  20  68 NW29G36   29.54R WCI  15
NORTHERLY ISL    N/A     30  20  66 NW14        N/A  WCI  20
$$

WIZ051-052-058>065-066-070>072-140200-
SOUTHEAST WISCONSIN

CITY           SKY/WX    TMP DP  RH WIND       PRES   REMARKS
MILWAUKEE      LGT SNOW  29  25  85 N21G32    29.53R FOG     WCI  16
KENOSHA*       LGT SNOW  27  21  78 NW16G29   29.51R WCI  15
RACINE*        LGT SNOW  29  25  85 N18G38    29.54R FOG     WCI  16
BURLINGTON     FLURRIES  25  23  92 NW14      29.54R WCI  13
WAUKESHA       LGT SNOW  25  21  86 N13G18    29.55R WCI  13
WEST BEND      FLURRIES  25  23  93 N13G20    29.57R WCI  13
$$

INZ001>003-010>013-019-020-140200-
NORTHWEST INDIANA

CITY           SKY/WX    TMP DP  RH WIND       PRES   REMARKS
GARY*          CLOUDY    32  21  64 NW21G43   29.49R WCI  20
MICHIGAN CITY* NOT AVBL
RENSSELAER*    NOT AVBL
VALPARAISO     CLOUDY    34  25  69 NW20G31   29.45R WCI  23
$$

LMZ740>746-140200-
SOUTHERN LAKE MICHIGAN

STATION/POSITION TIME  SKY/WX   TEMP WIND        PRES    VSBY
                                AIR  DIR/SP/G
                 (UTC)          (F)  (DEG/KT/KT) (MB)    (MI)
HARRISON CRIB    0040            31  310/ 31/ 35   N/A
BURNHAM HARBOR   0100            30  300/ 15/ 25   N/A
CALUMET HARBOR   0042            30  310/ 19/ 28  998.2R
BURNS HARBOR     0040            33  310/ 26/ 32  997.3R
MICHIGAN CITY    0040            32  300/ 35/ 39   N/A
$$

ABBREVIATIONS USED IN REMARKS
   TC - TEMPERATURE IN CELSIUS
  WCI - WIND CHILL INDEX
   HX - HEAT INDEX
  VSB - VISIBILITY
$$



USA.gov is the U.S. government's official web portal to all federal, state and local government web resources and services.